Year,Month,Day,Hour,Minute,Value (Times are PST for temperature in C)
2002,08,25,00,00,14.60
2002,08,25,00,01,14.60
2002,08,25,00,02,14.60
2002,08,25,00,03,14.50
2002,08,25,00,04,14.50
2002,08,25,00,05,14.50
2002,08,25,00,06,14.50
2002,08,25,00,07,14.50
2002,08,25,00,08,14.50
2002,08,25,00,09,14.50
2002,08,25,00,10,14.50
2002,08,25,00,11,14.50
2002,08,25,00,12,14.50
2002,08,25,00,13,14.50
2002,08,25,00,14,14.50
2002,08,25,00,15,14.50
2002,08,25,00,16,14.50
2002,08,25,00,17,14.50
2002,08,25,00,18,14.50
2002,08,25,00,19,14.50
2002,08,25,00,20,14.50
2002,08,25,00,21,14.50
2002,08,25,00,22,14.50
2002,08,25,00,23,14.40
2002,08,25,00,24,14.40
2002,08,25,00,25,14.40
2002,08,25,00,26,14.40
2002,08,25,00,27,14.40
2002,08,25,00,28,14.40
2002,08,25,00,29,14.30
2002,08,25,00,30,14.30
2002,08,25,00,31,14.30
2002,08,25,00,32,14.30
2002,08,25,00,33,14.30
2002,08,25,00,34,14.30
2002,08,25,00,35,14.20
2002,08,25,00,36,14.20
2002,08,25,00,37,14.30
2002,08,25,00,38,14.30
2002,08,25,00,39,14.30
2002,08,25,00,40,14.30
2002,08,25,00,41,14.30
2002,08,25,00,42,14.20
2002,08,25,00,43,14.20
2002,08,25,00,44,14.20
2002,08,25,00,45,14.20
2002,08,25,00,46,14.20
2002,08,25,00,47,14.20
2002,08,25,00,48,14.20
2002,08,25,00,49,14.20
2002,08,25,00,50,14.20
2002,08,25,00,51,14.20
2002,08,25,00,52,14.20
2002,08,25,00,53,14.20
2002,08,25,00,54,14.10
2002,08,25,00,55,14.10
2002,08,25,00,56,14.10
2002,08,25,00,57,14.10
2002,08,25,00,58,14.10
2002,08,25,00,59,14.10
2002,08,25,01,00,14.10
2002,08,25,01,01,14.10
2002,08,25,01,02,14.10
2002,08,25,01,03,14.10
2002,08,25,01,04,14.10
2002,08,25,01,05,14.10
2002,08,25,01,06,14.20
2002,08,25,01,07,14.20
2002,08,25,01,08,14.20
2002,08,25,01,09,14.20
2002,08,25,01,10,14.10
2002,08,25,01,11,14.10
2002,08,25,01,12,14.10
2002,08,25,01,13,14.10
2002,08,25,01,14,14.20
2002,08,25,01,15,14.20
2002,08,25,01,16,14.20
2002,08,25,01,17,14.20
2002,08,25,01,18,14.10
2002,08,25,01,19,14.10
2002,08,25,01,20,14.10
2002,08,25,01,21,14.10
2002,08,25,01,22,14.10
2002,08,25,01,23,14.10
2002,08,25,01,24,14.00
2002,08,25,01,25,14.00
2002,08,25,01,26,14.00
2002,08,25,01,27,14.00
2002,08,25,01,28,14.00
2002,08,25,01,29,13.90
2002,08,25,01,30,13.90
2002,08,25,01,31,14.00
2002,08,25,01,32,14.00
2002,08,25,01,33,14.00
2002,08,25,01,34,13.90
2002,08,25,01,35,13.90
2002,08,25,01,36,13.90
2002,08,25,01,37,13.90
2002,08,25,01,38,13.90
2002,08,25,01,39,13.90
2002,08,25,01,40,13.90
2002,08,25,01,41,13.90
2002,08,25,01,42,13.90
2002,08,25,01,43,13.90
2002,08,25,01,44,13.90
2002,08,25,01,45,13.90
2002,08,25,01,46,13.90
2002,08,25,01,47,13.90
2002,08,25,01,48,13.90
2002,08,25,01,49,13.90
2002,08,25,01,50,13.90
2002,08,25,01,51,13.90
2002,08,25,01,52,13.90
2002,08,25,01,53,13.80
2002,08,25,01,54,13.80
2002,08,25,01,55,13.80
2002,08,25,01,56,13.80
2002,08,25,01,57,13.80
2002,08,25,01,58,13.80
2002,08,25,01,59,13.80
2002,08,25,02,00,13.80
2002,08,25,02,01,13.80
2002,08,25,02,02,13.80
2002,08,25,02,03,13.80
2002,08,25,02,04,13.80
2002,08,25,02,05,13.80
2002,08,25,02,06,13.80
2002,08,25,02,07,13.80
2002,08,25,02,08,13.80
2002,08,25,02,09,13.80
2002,08,25,02,10,13.80
2002,08,25,02,11,13.80
2002,08,25,02,12,13.80
2002,08,25,02,13,13.80
2002,08,25,02,14,13.80
2002,08,25,02,15,13.80
2002,08,25,02,16,13.80
2002,08,25,02,17,13.80
2002,08,25,02,18,13.80
2002,08,25,02,19,13.70
2002,08,25,02,20,13.80
2002,08,25,02,21,13.80
2002,08,25,02,22,13.80
2002,08,25,02,23,13.80
2002,08,25,02,24,13.70
2002,08,25,02,25,13.70
2002,08,25,02,26,13.70
2002,08,25,02,27,13.70
2002,08,25,02,28,13.70
2002,08,25,02,29,13.70
2002,08,25,02,30,13.70
2002,08,25,02,31,13.80
2002,08,25,02,32,13.80
2002,08,25,02,33,13.80
2002,08,25,02,34,13.80
2002,08,25,02,35,13.80
2002,08,25,02,36,13.80
2002,08,25,02,37,13.90
2002,08,25,02,38,13.90
2002,08,25,02,39,14.00
2002,08,25,02,40,14.00
2002,08,25,02,41,14.00
2002,08,25,02,42,14.00
2002,08,25,02,43,14.00
2002,08,25,02,44,14.00
2002,08,25,02,45,14.10
2002,08,25,02,46,14.10
2002,08,25,02,47,14.10
2002,08,25,02,48,14.10
2002,08,25,02,49,14.10
2002,08,25,02,50,14.10
2002,08,25,02,51,14.10
2002,08,25,02,52,14.10
2002,08,25,02,53,14.10
2002,08,25,02,54,14.10
2002,08,25,02,55,14.10
2002,08,25,02,56,14.10
2002,08,25,02,57,14.20
2002,08,25,02,58,14.20
2002,08,25,02,59,14.20
2002,08,25,03,00,14.20
2002,08,25,03,01,14.20
2002,08,25,03,02,14.20
2002,08,25,03,03,14.20
2002,08,25,03,04,14.20
2002,08,25,03,05,14.10
2002,08,25,03,06,14.10
2002,08,25,03,07,14.10
2002,08,25,03,08,14.10
2002,08,25,03,09,14.10
2002,08,25,03,10,14.00
2002,08,25,03,11,14.00
2002,08,25,03,12,14.00
2002,08,25,03,13,14.00
2002,08,25,03,14,14.00
2002,08,25,03,15,14.00
2002,08,25,03,16,14.00
2002,08,25,03,17,14.00
2002,08,25,03,18,14.00
2002,08,25,03,19,14.00
2002,08,25,03,20,13.90
2002,08,25,03,21,13.90
2002,08,25,03,22,13.90
2002,08,25,03,23,13.90
2002,08,25,03,24,13.90
2002,08,25,03,25,13.90
2002,08,25,03,26,13.90
2002,08,25,03,27,13.90
2002,08,25,03,28,13.90
2002,08,25,03,29,13.90
2002,08,25,03,30,13.90
2002,08,25,03,31,13.90
2002,08,25,03,32,13.90
2002,08,25,03,33,13.80
2002,08,25,03,34,13.80
2002,08,25,03,35,13.80
2002,08,25,03,36,13.80
2002,08,25,03,37,13.80
2002,08,25,03,38,13.80
2002,08,25,03,39,13.80
2002,08,25,03,40,13.70
2002,08,25,03,41,13.70
2002,08,25,03,42,13.70
2002,08,25,03,43,13.70
2002,08,25,03,44,13.70
2002,08,25,03,45,13.70
2002,08,25,03,46,13.70
2002,08,25,03,47,13.70
2002,08,25,03,48,13.70
2002,08,25,03,49,13.70
2002,08,25,03,50,13.70
2002,08,25,03,51,13.70
2002,08,25,03,52,13.70
2002,08,25,03,53,13.70
2002,08,25,03,54,13.70
2002,08,25,03,55,13.70
2002,08,25,03,56,13.70
2002,08,25,03,57,13.70
2002,08,25,03,58,13.70
2002,08,25,03,59,13.70
2002,08,25,04,00,13.70
2002,08,25,04,01,13.70
2002,08,25,04,02,13.70
2002,08,25,04,03,13.70
2002,08,25,04,04,13.70
2002,08,25,04,05,13.70
2002,08,25,04,06,13.70
2002,08,25,04,07,13.70
2002,08,25,04,08,13.70
2002,08,25,04,09,13.70
2002,08,25,04,10,13.70
2002,08,25,04,11,13.70
2002,08,25,04,12,13.70
2002,08,25,04,13,13.80
2002,08,25,04,14,13.80
2002,08,25,04,15,13.80
2002,08,25,04,16,13.80
2002,08,25,04,17,13.80
2002,08,25,04,18,13.90
2002,08,25,04,19,13.90
2002,08,25,04,20,13.90
2002,08,25,04,21,13.90
2002,08,25,04,22,14.00
2002,08,25,04,23,14.00
2002,08,25,04,24,14.00
2002,08,25,04,25,14.00
2002,08,25,04,26,14.00
2002,08,25,04,27,14.00
2002,08,25,04,28,14.00
2002,08,25,04,29,14.00
2002,08,25,04,30,14.00
2002,08,25,04,31,14.00
2002,08,25,04,32,14.00
2002,08,25,04,33,14.00
2002,08,25,04,34,14.00
2002,08,25,04,35,14.10
2002,08,25,04,36,14.10
2002,08,25,04,37,14.10
2002,08,25,04,38,14.10
2002,08,25,04,39,14.10
2002,08,25,04,40,14.10
2002,08,25,04,41,14.10
2002,08,25,04,42,14.10
2002,08,25,04,43,14.10
2002,08,25,04,44,14.10
2002,08,25,04,45,14.10
2002,08,25,04,46,14.10
2002,08,25,04,47,14.10
2002,08,25,04,48,14.10
2002,08,25,04,49,14.10
2002,08,25,04,50,14.10
2002,08,25,04,51,14.10
2002,08,25,04,52,14.10
2002,08,25,04,53,14.10
2002,08,25,04,54,14.10
2002,08,25,04,55,14.10
2002,08,25,04,56,14.10
2002,08,25,04,57,14.10
2002,08,25,04,58,14.10
2002,08,25,04,59,14.10
2002,08,25,05,00,14.10
2002,08,25,05,01,14.10
2002,08,25,05,02,14.10
2002,08,25,05,03,14.10
2002,08,25,05,04,14.10
2002,08,25,05,05,14.10
2002,08,25,05,06,14.10
2002,08,25,05,07,14.10
2002,08,25,05,08,14.10
2002,08,25,05,09,14.10
2002,08,25,05,10,14.10
2002,08,25,05,11,14.20
2002,08,25,05,12,14.20
2002,08,25,05,13,14.20
2002,08,25,05,14,14.20
2002,08,25,05,15,14.20
2002,08,25,05,16,14.20
2002,08,25,05,17,14.20
2002,08,25,05,18,14.20
2002,08,25,05,19,14.20
2002,08,25,05,20,14.20
2002,08,25,05,21,14.20
2002,08,25,05,22,14.20
2002,08,25,05,23,14.20
2002,08,25,05,24,14.20
2002,08,25,05,25,14.20
2002,08,25,05,26,14.30
2002,08,25,05,27,14.30
2002,08,25,05,28,14.30
2002,08,25,05,29,14.30
2002,08,25,05,30,14.30
2002,08,25,05,31,14.40
2002,08,25,05,32,14.40
2002,08,25,05,33,14.40
2002,08,25,05,34,14.40
2002,08,25,05,35,14.40
2002,08,25,05,36,14.40
2002,08,25,05,37,14.50
2002,08,25,05,38,14.50
2002,08,25,05,39,14.50
2002,08,25,05,40,14.50
2002,08,25,05,41,14.60
2002,08,25,05,42,14.60
2002,08,25,05,43,14.60
2002,08,25,05,44,14.60
2002,08,25,05,45,14.60
2002,08,25,05,46,14.60
2002,08,25,05,47,14.60
2002,08,25,05,48,14.60
2002,08,25,05,49,14.60
2002,08,25,05,50,14.60
2002,08,25,05,51,14.60
2002,08,25,05,52,14.60
2002,08,25,05,53,14.60
2002,08,25,05,54,14.60
2002,08,25,05,55,14.60
2002,08,25,05,56,14.60
2002,08,25,05,57,14.70
2002,08,25,05,58,14.70
2002,08,25,05,59,14.70
2002,08,25,06,00,14.70
2002,08,25,06,01,14.80
2002,08,25,06,02,14.70
2002,08,25,06,03,14.70
2002,08,25,06,04,14.80
2002,08,25,06,05,14.80
2002,08,25,06,06,14.80
2002,08,25,06,07,14.80
2002,08,25,06,08,14.80
2002,08,25,06,09,14.80
2002,08,25,06,10,14.70
2002,08,25,06,11,14.70
2002,08,25,06,12,14.70
2002,08,25,06,13,14.70
2002,08,25,06,14,14.70
2002,08,25,06,15,14.60
2002,08,25,06,16,14.60
2002,08,25,06,17,14.60
2002,08,25,06,18,14.60
2002,08,25,06,19,14.60
2002,08,25,06,20,14.50
2002,08,25,06,21,14.50
2002,08,25,06,22,14.50
2002,08,25,06,23,14.50
2002,08,25,06,24,14.50
2002,08,25,06,25,14.50
2002,08,25,06,26,14.50
2002,08,25,06,27,14.50
2002,08,25,06,28,14.50
2002,08,25,06,29,14.50
2002,08,25,06,30,14.50
2002,08,25,06,31,14.50
2002,08,25,06,32,14.50
2002,08,25,06,33,14.50
2002,08,25,06,34,14.50
2002,08,25,06,35,14.40
2002,08,25,06,36,14.50
2002,08,25,06,37,14.50
2002,08,25,06,38,14.50
2002,08,25,06,39,14.50
2002,08,25,06,40,14.50
2002,08,25,06,41,14.60
2002,08,25,06,42,14.60
2002,08,25,06,43,14.60
2002,08,25,06,44,14.70
2002,08,25,06,45,14.70
2002,08,25,06,46,14.70
2002,08,25,06,47,14.70
2002,08,25,06,48,14.70
2002,08,25,06,49,14.70
2002,08,25,06,50,14.70
2002,08,25,06,51,14.80
2002,08,25,06,52,14.80
2002,08,25,06,53,14.80
2002,08,25,06,54,14.70
2002,08,25,06,55,14.70
2002,08,25,06,56,14.70
2002,08,25,06,57,14.70
2002,08,25,06,58,14.70
2002,08,25,06,59,14.80
2002,08,25,07,00,14.70
2002,08,25,07,01,14.70
2002,08,25,07,02,14.70
2002,08,25,07,03,14.70
2002,08,25,07,04,14.70
2002,08,25,07,05,14.70
2002,08,25,07,06,14.70
2002,08,25,07,07,14.70
2002,08,25,07,08,14.70
2002,08,25,07,09,14.70
2002,08,25,07,10,14.70
2002,08,25,07,11,14.60
2002,08,25,07,12,14.70
2002,08,25,07,13,14.70
2002,08,25,07,14,14.70
2002,08,25,07,15,14.60
2002,08,25,07,16,14.60
2002,08,25,07,17,14.60
2002,08,25,07,18,14.60
2002,08,25,07,19,14.60
2002,08,25,07,20,14.60
2002,08,25,07,21,14.70
2002,08,25,07,22,14.70
2002,08,25,07,23,14.70
2002,08,25,07,24,14.80
2002,08,25,07,25,14.80
2002,08,25,07,26,14.80
2002,08,25,07,27,14.80
2002,08,25,07,28,14.80
2002,08,25,07,29,14.80
2002,08,25,07,30,14.80
2002,08,25,07,31,14.80
2002,08,25,07,32,14.80
2002,08,25,07,33,14.80
2002,08,25,07,34,14.80
2002,08,25,07,35,14.90
2002,08,25,07,36,14.90
2002,08,25,07,37,14.90
2002,08,25,07,38,14.90
2002,08,25,07,39,14.90
2002,08,25,07,40,14.90
2002,08,25,07,41,14.90
2002,08,25,07,42,15.00
2002,08,25,07,43,15.00
2002,08,25,07,44,15.00
2002,08,25,07,45,15.00
2002,08,25,07,46,15.00
2002,08,25,07,47,15.00
2002,08,25,07,48,15.00
2002,08,25,07,49,15.00
2002,08,25,07,50,15.10
2002,08,25,07,51,15.10
2002,08,25,07,52,15.10
2002,08,25,07,53,15.20
2002,08,25,07,54,15.30
2002,08,25,07,55,15.30
2002,08,25,07,56,15.30
2002,08,25,07,57,15.40
2002,08,25,07,58,15.40
2002,08,25,07,59,15.50
2002,08,25,08,00,15.50
2002,08,25,08,01,15.60
2002,08,25,08,02,15.60
2002,08,25,08,03,15.60
2002,08,25,08,04,15.70
2002,08,25,08,05,15.70
2002,08,25,08,06,15.70
2002,08,25,08,07,15.80
2002,08,25,08,08,15.80
2002,08,25,08,09,15.80
2002,08,25,08,10,15.80
2002,08,25,08,11,15.80
2002,08,25,08,12,15.90
2002,08,25,08,13,15.90
2002,08,25,08,14,16.00
2002,08,25,08,15,16.10
2002,08,25,08,16,16.10
2002,08,25,08,17,16.10
2002,08,25,08,18,16.10
2002,08,25,08,19,16.10
2002,08,25,08,20,16.10
2002,08,25,08,21,16.10
2002,08,25,08,22,16.10
2002,08,25,08,23,16.10
2002,08,25,08,24,16.20
2002,08,25,08,25,16.20
2002,08,25,08,26,16.20
2002,08,25,08,27,16.30
2002,08,25,08,28,16.30
2002,08,25,08,29,16.40
2002,08,25,08,30,16.40
2002,08,25,08,31,16.40
2002,08,25,08,32,16.40
2002,08,25,08,33,16.40
2002,08,25,08,34,16.40
2002,08,25,08,35,16.40
2002,08,25,08,36,16.40
2002,08,25,08,37,16.40
2002,08,25,08,38,16.40
2002,08,25,08,39,16.40
2002,08,25,08,40,16.40
2002,08,25,08,41,16.40
2002,08,25,08,42,16.40
2002,08,25,08,43,16.40
2002,08,25,08,44,16.40
2002,08,25,08,45,16.50
2002,08,25,08,46,16.50
2002,08,25,08,47,16.40
2002,08,25,08,48,16.50
2002,08,25,08,49,16.50
2002,08,25,08,50,16.40
2002,08,25,08,51,16.40
2002,08,25,08,52,16.40
2002,08,25,08,53,16.50
2002,08,25,08,54,16.60
2002,08,25,08,55,16.50
2002,08,25,08,56,16.50
2002,08,25,08,57,16.60
2002,08,25,08,58,16.50
2002,08,25,08,59,16.60
2002,08,25,09,00,16.60
2002,08,25,09,01,16.60
2002,08,25,09,02,16.50
2002,08,25,09,03,16.60
2002,08,25,09,04,16.50
2002,08,25,09,05,16.60
2002,08,25,09,06,16.60
2002,08,25,09,07,16.60
2002,08,25,09,08,16.60
2002,08,25,09,09,16.60
2002,08,25,09,10,16.60
2002,08,25,09,11,16.60
2002,08,25,09,12,16.60
2002,08,25,09,13,16.60
2002,08,25,09,14,16.60
2002,08,25,09,15,16.60
2002,08,25,09,16,16.60
2002,08,25,09,17,16.60
2002,08,25,09,18,16.60
2002,08,25,09,19,16.60
2002,08,25,09,20,16.70
2002,08,25,09,21,16.70
2002,08,25,09,22,16.70
2002,08,25,09,23,16.70
2002,08,25,09,24,16.70
2002,08,25,09,25,16.70
2002,08,25,09,26,16.70
2002,08,25,09,27,16.80
2002,08,25,09,28,16.80
2002,08,25,09,29,16.90
2002,08,25,09,30,16.90
2002,08,25,09,31,17.00
2002,08,25,09,32,17.10
2002,08,25,09,33,17.10
2002,08,25,09,34,17.20
2002,08,25,09,35,17.30
2002,08,25,09,36,17.30
2002,08,25,09,37,17.30
2002,08,25,09,38,17.30
2002,08,25,09,39,17.40
2002,08,25,09,40,17.40
2002,08,25,09,41,17.30
2002,08,25,09,42,17.40
2002,08,25,09,43,17.40
2002,08,25,09,44,17.40
2002,08,25,09,45,17.50
2002,08,25,09,46,17.50
2002,08,25,09,47,17.50
2002,08,25,09,48,17.60
2002,08,25,09,49,17.70
2002,08,25,09,50,17.80
2002,08,25,09,51,17.80
2002,08,25,09,52,17.80
2002,08,25,09,53,17.90
2002,08,25,09,54,17.90
2002,08,25,09,55,17.90
2002,08,25,09,56,17.90
2002,08,25,09,57,17.90
2002,08,25,09,58,18.00
2002,08,25,09,59,18.00
2002,08,25,10,00,18.00
2002,08,25,10,01,18.00
2002,08,25,10,02,18.10
2002,08,25,10,03,18.10
2002,08,25,10,04,18.20
2002,08,25,10,05,18.20
2002,08,25,10,06,18.20
2002,08,25,10,07,18.30
2002,08,25,10,08,18.40
2002,08,25,10,09,18.40
2002,08,25,10,10,18.50
2002,08,25,10,11,18.50
2002,08,25,10,12,18.50
2002,08,25,10,13,18.60
2002,08,25,10,14,18.60
2002,08,25,10,15,18.60
2002,08,25,10,16,18.50
2002,08,25,10,17,18.50
2002,08,25,10,18,18.50
2002,08,25,10,19,18.50
2002,08,25,10,20,18.50
2002,08,25,10,21,18.50
2002,08,25,10,22,18.50
2002,08,25,10,23,18.50
2002,08,25,10,24,18.50
2002,08,25,10,25,18.50
2002,08,25,10,26,18.40
2002,08,25,10,27,18.30
2002,08,25,10,28,18.30
2002,08,25,10,29,18.40
2002,08,25,10,30,18.40
2002,08,25,10,31,18.50
2002,08,25,10,32,18.40
2002,08,25,10,33,18.50
2002,08,25,10,34,18.50
2002,08,25,10,35,18.60
2002,08,25,10,36,18.60
2002,08,25,10,37,18.60
2002,08,25,10,38,18.60
2002,08,25,10,39,18.60
2002,08,25,10,40,18.60
2002,08,25,10,41,18.50
2002,08,25,10,42,18.40
2002,08,25,10,43,18.40
2002,08,25,10,44,18.30
2002,08,25,10,45,18.30
2002,08,25,10,46,18.20
2002,08,25,10,47,18.20
2002,08,25,10,48,18.20
2002,08,25,10,49,18.40
2002,08,25,10,50,18.40
2002,08,25,10,51,18.50
2002,08,25,10,52,18.60
2002,08,25,10,53,18.60
2002,08,25,10,54,18.70
2002,08,25,10,55,18.60
2002,08,25,10,56,18.60
2002,08,25,10,57,18.60
2002,08,25,10,58,18.70
2002,08,25,10,59,18.70
2002,08,25,11,00,18.70
2002,08,25,11,01,18.80
2002,08,25,11,02,18.90
2002,08,25,11,03,18.90
2002,08,25,11,04,18.90
2002,08,25,11,05,19.00
2002,08,25,11,06,18.90
2002,08,25,11,07,18.90
2002,08,25,11,08,18.90
2002,08,25,11,09,19.00
2002,08,25,11,10,18.90
2002,08,25,11,11,18.80
2002,08,25,11,12,18.70
2002,08,25,11,13,18.70
2002,08,25,11,14,18.70
2002,08,25,11,15,18.70
2002,08,25,11,16,18.70
2002,08,25,11,17,18.80
2002,08,25,11,18,18.80
2002,08,25,11,19,18.80
2002,08,25,11,20,18.90
2002,08,25,11,21,18.90
2002,08,25,11,22,18.80
2002,08,25,11,23,18.80
2002,08,25,11,24,18.90
2002,08,25,11,25,18.90
2002,08,25,11,26,18.90
2002,08,25,11,27,18.90
2002,08,25,11,28,19.00
2002,08,25,11,29,19.10
2002,08,25,11,30,19.10
2002,08,25,11,31,19.10
2002,08,25,11,32,19.20
2002,08,25,11,33,19.20
2002,08,25,11,34,19.30
2002,08,25,11,35,19.40
2002,08,25,11,36,19.40
2002,08,25,11,37,19.50
2002,08,25,11,38,19.60
2002,08,25,11,39,19.50
2002,08,25,11,40,19.50
2002,08,25,11,41,19.50
2002,08,25,11,42,19.50
2002,08,25,11,43,19.50
2002,08,25,11,44,19.40
2002,08,25,11,45,19.40
2002,08,25,11,46,19.40
2002,08,25,11,47,19.20
2002,08,25,11,48,19.20
2002,08,25,11,49,19.30
2002,08,25,11,50,19.30
2002,08,25,11,51,19.40
2002,08,25,11,52,19.60
2002,08,25,11,53,19.70
2002,08,25,11,54,19.80
2002,08,25,11,55,19.90
2002,08,25,11,56,19.90
2002,08,25,11,57,20.00
2002,08,25,11,58,20.10
2002,08,25,11,59,20.20
2002,08,25,12,00,20.10
2002,08,25,12,01,20.10
2002,08,25,12,02,20.10
2002,08,25,12,03,20.20
2002,08,25,12,04,20.20
2002,08,25,12,05,20.20
2002,08,25,12,06,20.30
2002,08,25,12,07,20.40
2002,08,25,12,08,20.40
2002,08,25,12,09,20.50
2002,08,25,12,10,20.50
2002,08,25,12,11,20.70
2002,08,25,12,12,20.80
2002,08,25,12,13,20.80
2002,08,25,12,14,21.00
2002,08,25,12,15,21.20
2002,08,25,12,16,21.30
2002,08,25,12,17,21.20
2002,08,25,12,18,21.00
2002,08,25,12,19,21.00
2002,08,25,12,20,21.00
2002,08,25,12,21,21.00
2002,08,25,12,22,21.00
2002,08,25,12,23,20.90
2002,08,25,12,24,20.80
2002,08,25,12,25,20.70
2002,08,25,12,26,20.50
2002,08,25,12,27,20.40
2002,08,25,12,28,20.20
2002,08,25,12,29,20.20
2002,08,25,12,30,20.20
2002,08,25,12,31,20.10
2002,08,25,12,32,20.00
2002,08,25,12,33,20.00
2002,08,25,12,34,19.90
2002,08,25,12,35,19.90
2002,08,25,12,36,20.00
2002,08,25,12,37,20.00
2002,08,25,12,38,20.10
2002,08,25,12,39,20.20
2002,08,25,12,40,20.30
2002,08,25,12,41,20.20
2002,08,25,12,42,20.20
2002,08,25,12,43,20.30
2002,08,25,12,44,20.30
2002,08,25,12,45,20.40
2002,08,25,12,46,20.50
2002,08,25,12,47,20.40
2002,08,25,12,48,20.50
2002,08,25,12,49,20.60
2002,08,25,12,50,20.60
2002,08,25,12,51,20.70
2002,08,25,12,52,20.90
2002,08,25,12,53,20.90
2002,08,25,12,54,21.00
2002,08,25,12,55,21.10
2002,08,25,12,56,21.20
2002,08,25,12,57,21.20
2002,08,25,12,58,21.30
2002,08,25,12,59,21.20
2002,08,25,13,00,21.30
2002,08,25,13,01,21.20
2002,08,25,13,02,21.40
2002,08,25,13,03,21.40
2002,08,25,13,04,21.60
2002,08,25,13,05,21.50
2002,08,25,13,06,21.40
2002,08,25,13,07,21.50
2002,08,25,13,08,21.60
2002,08,25,13,09,21.80
2002,08,25,13,10,22.00
2002,08,25,13,11,22.20
2002,08,25,13,12,22.40
2002,08,25,13,13,22.40
2002,08,25,13,14,22.30
2002,08,25,13,15,22.30
2002,08,25,13,16,22.20
2002,08,25,13,17,22.10
2002,08,25,13,18,22.30
2002,08,25,13,19,22.40
2002,08,25,13,20,22.50
2002,08,25,13,21,22.50
2002,08,25,13,22,22.40
2002,08,25,13,23,22.40
2002,08,25,13,24,22.20
2002,08,25,13,25,22.00
2002,08,25,13,26,22.10
2002,08,25,13,27,22.10
2002,08,25,13,28,22.10
2002,08,25,13,29,22.00
2002,08,25,13,30,21.90
2002,08,25,13,31,21.90
2002,08,25,13,32,21.90
2002,08,25,13,33,21.90
2002,08,25,13,34,21.90
2002,08,25,13,35,21.90
2002,08,25,13,36,21.90
2002,08,25,13,37,21.90
2002,08,25,13,38,21.80
2002,08,25,13,39,21.70
2002,08,25,13,40,21.50
2002,08,25,13,41,21.40
2002,08,25,13,42,21.40
2002,08,25,13,43,21.40
2002,08,25,13,44,21.30
2002,08,25,13,45,21.40
2002,08,25,13,46,21.30
2002,08,25,13,47,21.20
2002,08,25,13,48,21.00
2002,08,25,13,49,21.00
2002,08,25,13,50,21.00
2002,08,25,13,51,21.10
2002,08,25,13,52,21.20
2002,08,25,13,53,21.20
2002,08,25,13,54,21.30
2002,08,25,13,55,21.30
2002,08,25,13,56,21.30
2002,08,25,13,57,21.10
2002,08,25,13,58,21.00
2002,08,25,13,59,21.00
2002,08,25,14,00,21.10
2002,08,25,14,01,21.30
2002,08,25,14,02,21.00
2002,08,25,14,03,21.00
2002,08,25,14,04,21.30
2002,08,25,14,05,21.40
2002,08,25,14,06,21.50
2002,08,25,14,07,21.70
2002,08,25,14,08,22.00
2002,08,25,14,09,22.30
2002,08,25,14,10,22.50
2002,08,25,14,11,22.60
2002,08,25,14,12,22.50
2002,08,25,14,13,22.60
2002,08,25,14,14,22.70
2002,08,25,14,15,22.90
2002,08,25,14,16,22.80
2002,08,25,14,17,22.90
2002,08,25,14,18,22.80
2002,08,25,14,19,22.90
2002,08,25,14,20,23.00
2002,08,25,14,21,23.20
2002,08,25,14,22,23.30
2002,08,25,14,23,23.30
2002,08,25,14,24,23.20
2002,08,25,14,25,23.30
2002,08,25,14,26,23.30
2002,08,25,14,27,23.30
2002,08,25,14,28,23.40
2002,08,25,14,29,23.50
2002,08,25,14,30,23.30
2002,08,25,14,31,23.20
2002,08,25,14,32,23.30
2002,08,25,14,33,23.40
2002,08,25,14,34,23.50
2002,08,25,14,35,23.40
2002,08,25,14,36,23.40
2002,08,25,14,37,23.40
2002,08,25,14,38,23.60
2002,08,25,14,39,23.70
2002,08,25,14,40,23.70
2002,08,25,14,41,23.70
2002,08,25,14,42,23.60
2002,08,25,14,43,23.40
2002,08,25,14,44,23.30
2002,08,25,14,45,23.40
2002,08,25,14,46,23.30
2002,08,25,14,47,23.40
2002,08,25,14,48,23.40
2002,08,25,14,49,23.50
2002,08,25,14,50,23.60
2002,08,25,14,51,23.60
2002,08,25,14,52,23.40
2002,08,25,14,53,23.30
2002,08,25,14,54,23.10
2002,08,25,14,55,22.80
2002,08,25,14,56,22.60
2002,08,25,14,57,22.50
2002,08,25,14,58,22.50
2002,08,25,14,59,22.40
2002,08,25,15,00,22.30
2002,08,25,15,01,22.20
2002,08,25,15,02,22.20
2002,08,25,15,03,22.30
2002,08,25,15,04,22.40
2002,08,25,15,05,22.50
2002,08,25,15,06,22.60
2002,08,25,15,07,22.80
2002,08,25,15,08,22.80
2002,08,25,15,09,22.90
2002,08,25,15,10,22.80
2002,08,25,15,11,23.00
2002,08,25,15,12,23.20
2002,08,25,15,13,23.30
2002,08,25,15,14,23.50
2002,08,25,15,15,23.60
2002,08,25,15,16,23.70
2002,08,25,15,17,23.60
2002,08,25,15,18,23.40
2002,08,25,15,19,23.20
2002,08,25,15,20,23.00
2002,08,25,15,21,23.20
2002,08,25,15,22,23.20
2002,08,25,15,23,23.30
2002,08,25,15,24,23.30
2002,08,25,15,25,23.40
2002,08,25,15,26,23.60
2002,08,25,15,27,23.70
2002,08,25,15,28,23.70
2002,08,25,15,29,23.80
2002,08,25,15,30,23.60
2002,08,25,15,31,23.70
2002,08,25,15,32,23.70
2002,08,25,15,33,23.50
2002,08,25,15,34,23.60
2002,08,25,15,35,23.50
2002,08,25,15,36,23.50
2002,08,25,15,37,23.60
2002,08,25,15,38,23.40
2002,08,25,15,39,23.40
2002,08,25,15,40,23.30
2002,08,25,15,41,23.40
2002,08,25,15,42,23.10
2002,08,25,15,43,23.10
2002,08,25,15,44,23.10
2002,08,25,15,45,22.90
2002,08,25,15,46,22.90
2002,08,25,15,47,22.90
2002,08,25,15,48,22.70
2002,08,25,15,49,22.70
2002,08,25,15,50,22.70
2002,08,25,15,51,22.90
2002,08,25,15,52,22.80
2002,08,25,15,53,22.90
2002,08,25,15,54,23.10
2002,08,25,15,55,23.30
2002,08,25,15,56,23.30
2002,08,25,15,57,23.40
2002,08,25,15,58,23.40
2002,08,25,15,59,23.40
2002,08,25,16,00,23.60
2002,08,25,16,01,23.70
2002,08,25,16,02,23.60
2002,08,25,16,03,23.50
2002,08,25,16,04,23.20
2002,08,25,16,05,23.30
2002,08,25,16,06,23.30
2002,08,25,16,07,23.30
2002,08,25,16,08,23.40
2002,08,25,16,09,23.50
2002,08,25,16,10,23.40
2002,08,25,16,11,23.40
2002,08,25,16,12,23.50
2002,08,25,16,13,23.70
2002,08,25,16,14,23.70
2002,08,25,16,15,23.90
2002,08,25,16,16,24.00
2002,08,25,16,17,24.00
2002,08,25,16,18,24.10
2002,08,25,16,19,24.10
2002,08,25,16,20,24.20
2002,08,25,16,21,24.20
2002,08,25,16,22,24.10
2002,08,25,16,23,23.70
2002,08,25,16,24,23.50
2002,08,25,16,25,23.30
2002,08,25,16,26,23.20
2002,08,25,16,27,22.90
2002,08,25,16,28,22.60
2002,08,25,16,29,22.60
2002,08,25,16,30,22.40
2002,08,25,16,31,22.50
2002,08,25,16,32,22.30
2002,08,25,16,33,22.30
2002,08,25,16,34,22.30
2002,08,25,16,35,22.20
2002,08,25,16,36,22.10
2002,08,25,16,37,22.10
2002,08,25,16,38,22.10
2002,08,25,16,39,22.10
2002,08,25,16,40,22.10
2002,08,25,16,41,22.10
2002,08,25,16,42,22.20
2002,08,25,16,43,22.30
2002,08,25,16,44,22.20
2002,08,25,16,45,22.10
2002,08,25,16,46,22.00
2002,08,25,16,47,22.00
2002,08,25,16,48,21.80
2002,08,25,16,49,21.70
2002,08,25,16,50,21.70
2002,08,25,16,51,21.60
2002,08,25,16,52,21.60
2002,08,25,16,53,21.60
2002,08,25,16,54,21.50
2002,08,25,16,55,21.60
2002,08,25,16,56,21.60
2002,08,25,16,57,21.50
2002,08,25,16,58,21.50
2002,08,25,16,59,21.50
2002,08,25,17,00,21.50
2002,08,25,17,01,21.50
2002,08,25,17,02,21.40
2002,08,25,17,03,21.30
2002,08,25,17,04,21.40
2002,08,25,17,05,21.40
2002,08,25,17,06,21.30
2002,08,25,17,07,21.30
2002,08,25,17,08,21.40
2002,08,25,17,09,21.40
2002,08,25,17,10,21.40
2002,08,25,17,11,21.40
2002,08,25,17,12,21.40
2002,08,25,17,13,21.40
2002,08,25,17,14,21.30
2002,08,25,17,15,21.40
2002,08,25,17,16,21.40
2002,08,25,17,17,21.50
2002,08,25,17,18,21.60
2002,08,25,17,19,21.60